Regional Weather Roundup
Issued by NWS

Home | Current Version | Previous Version | Text Only | Print | Product List | Glossary Off
Versions: 1 2 3 4 5 6 7 8 9 10 11 12 13 14 15 16 17 18 19 20 21 22 23 24 25 26 27 28 29 30 31 32 33 34 35 36 37 38 39 40 41 42 43 44 45 46 47 48 49 50

000
ASUS43 KBIS 311702
RWRND

NORTH DAKOTA REGIONAL WEATHER ROUNDUP
NATIONAL WEATHER SERVICE BISMARCK ND
1200 PM CDT FRI JUL 31 2015

NOTE: "FAIR" INDICATES FEW OR NO CLOUDS BELOW 12,000 FEET WITH NO
SIGNIFICANT WEATHER AND/OR OBSTRUCTIONS TO VISIBILITY.


NDZ001>003-009>011-017-311800-
NORTHWEST NORTH DAKOTA

CITY           SKY/WX    TMP DP  RH WIND       PRES   REMARKS
WILLISTON      SUNNY     81  51  35 VRB7      30.16F
MINOT          SUNNY     78  49  35 N6        30.12S
MINOT AFB      SUNNY     81  51  35 NW10      30.11F
$$

NDZ018>021-031>035-040>046-311800-
SOUTHWEST NORTH DAKOTA

CITY           SKY/WX    TMP DP  RH WIND       PRES   REMARKS
BISMARCK       SUNNY     82  54  37 W9        30.13F
DICKINSON      SUNNY     84  44  24 W12       30.17S
GARRISON         N/A     78  56  46 NW10      30.13S
HETTINGER ARPT SUNNY     84  41  21 NW8       30.21S
$$

NDZ004>008-012>016-024-026-027-054-311800-
NORTHEAST NORTH DAKOTA

CITY           SKY/WX    TMP DP  RH WIND       PRES   REMARKS
GRAND FORKS    MOSUNNY   79  51  37 NW17G23   30.05S
GRND FRKS AFB  SUNNY     77  53  41 NW14G20   30.07S
DEVILS LAKE    SUNNY     75  52  43 W13       30.09F
$$

NDZ022-023-025-028>030-036>039-047>053-311800-
SOUTHEAST NORTH DAKOTA

CITY           SKY/WX    TMP DP  RH WIND       PRES   REMARKS
FARGO          SUNNY     79  52  38 NW18      30.08F
JAMESTOWN      SUNNY     77  50  38 NW5G17    30.12S
$$




USA.gov is the U.S. government's official web portal to all federal, state and local government web resources and services.